Flag for Canada Weather past 2 weeks in Gatineau, Quebec, Canada

Now
55 °F

Clear.


Feels Like: 54 °F
Forecast: 50 / 73 °F
Wind: 7 mph from West

Location: Ottawa Int'L. Ont.

Current Time: Aug 28, 2014 at 11:33:00 PM

Latest Report: Aug 28, 2014 at 11:00 PM


Visibility: 15 mi

Pressure: 30.09 "Hg

Humidity: 94%

Dew point: 54 °F

Location of GatineauLocation

Historic Weather in Gatineau — Graph

°F

Gatineau temperature yesterday

Maximum temperature yesterday: 73 °F (at 12:00 AM)
Minimum temperature yesterday: 63 °F (at 6:00 AM)
Average temperature yesterday: 69 °F

Past Weeks' High & Low Weather Summary

 TemperatureHumidityPressure
High84 °F (Aug 26, 3:00 PM)100% (Aug 16, 3:00 PM)30.22 "Hg (Aug 16, 3:00 PM)
Low48 °F (Aug 18, 6:00 AM)41% (Aug 19, 4:00 PM)29.70 "Hg (Aug 13, 10:00 PM)
Average64 °F79%29.96 "Hg
* Reported Aug 13 10:00 PM — Aug 28 10:00 PM, Gatineau, Weather by CustomWeather, © 2014

Note: Actual official high and low records may vary slightly from our data, if they occured in-between our weather recording intervals... More about our weather records

Advertising

Gatineau weather history for previous 24 hours

 ConditionsComfort  
Time TempWeatherWind HumidityBarometerVisibility
10:00 PM
Aug 28
55 °FClear.6 mph82%30.08 "Hg15 mi
9:00 PM59 °FClear.8 mph72%30.07 "Hg15 mi
8:00 PM61 °FPassing clouds.9 mph68%30.06 "Hg15 mi
7:00 PM63 °FScattered clouds.12 mph64%30.04 "Hg15 mi
6:00 PM64 °FPartly sunny.15 mph60%30.03 "Hg15 mi
5:00 PM66 °FPartly sunny.12 mph52%30.01 "Hg15 mi
4:00 PM68 °FBroken clouds.16 mph53%29.98 "Hg15 mi
3:00 PM66 °FBroken clouds.13 mph52%29.98 "Hg15 mi
2:00 PM66 °FPartly sunny.16 mph52%29.98 "Hg15 mi
1:00 PM66 °FPartly sunny.16 mph56%29.98 "Hg15 mi
12:00 PM64 °FPartly sunny.12 mph60%29.98 "Hg15 mi
11:00 AM68 °FScattered clouds.13 mph49%29.99 "Hg15 mi
10:00 AM68 °FPartly sunny.15 mph56%29.98 "Hg15 mi
9:00 AM63 °FPartly sunny.10 mph77%29.98 "Hg15 mi
8:00 AM61 °FPartly sunny.9 mph83%29.98 "Hg15 mi
7:00 AM59 °FPassing clouds.5 mph88%29.97 "Hg15 mi
6:00 AM55 °FPassing clouds.5 mph100%29.96 "Hg15 mi
5:00 AM57 °FPassing clouds.6 mph94%29.95 "Hg15 mi
4:00 AM57 °FPassing clouds.8 mph94%29.95 "Hg15 mi
3:00 AM57 °FPassing clouds.6 mph94%29.95 "Hg15 mi
2:00 AM61 °FPassing clouds.5 mph83%29.95 "Hg15 mi
1:00 AM63 °FPassing clouds.8 mph77%29.96 "Hg15 mi
12:00 AM64 °FPassing clouds.7 mph78%29.97 "Hg15 mi
11:00 PM
Aug 27
64 °FPassing clouds.10 mph78%29.96 "Hg15 mi
Weather by CustomWeather, © 2014

See weather overviewHow to use our weather pages